{"data":{"norad_id":65377,"epoch":"2026-05-25T01:48:50.321952Z","epoch_age_seconds":61726,"freshness":"FRESH","line1":"1 65377U 25190AC  26145.07558243  .00014725  00000+0  50815-3 0  9997","line2":"2 65377  53.1593 173.1214 0001120  77.3863 282.7263 15.30208849 41457","mean_motion":15.30208849,"eccentricity":0.000112,"inclination_deg":53.1593,"raan_deg":173.1214,"arg_perigee_deg":77.3863,"mean_anomaly_deg":282.7263,"bstar":0.00050815,"rev_number":4145,"period_min":94.104801507392,"perigee_km":474.42107555511,"apogee_km":475.95622050027,"semimajor_km":6853.3256480277,"source":"CELESTRAK","updated_at":"2026-05-25T13:38:20.770961Z"}}